Time,TemperatureF,DewpointF,PressureIn,WindDirection,WindDirectionDegrees,WindSpeedMPH,WindSpeedGustMPH,Humidity,HourlyPrecipIn,Conditions,Clouds,dailyrainin,SoftwareType,DateUTC
2013-09-16 00:01:00,70.2,49.6,30.05,SW,225,0.0,0.0,48,0.00,,,0.00,meteohub,2013-09-15 21:01:00,
2013-09-16 00:07:00,70.2,50.2,30.05,SW,225,0.0,0.0,49,0.00,,,0.00,meteohub,2013-09-15 21:07:00,
2013-09-16 00:13:00,70.2,50.2,30.05,SW,225,0.0,0.0,49,0.00,,,0.00,meteohub,2013-09-15 21:13:00,
2013-09-16 00:19:00,70.2,50.2,30.05,SW,225,0.0,0.0,49,0.00,,,0.00,meteohub,2013-09-15 21:19:00,
2013-09-16 00:25:00,70.2,50.7,30.05,SW,225,0.0,1.0,50,0.00,,,0.00,meteohub,2013-09-15 21:25:00,
2013-09-16 00:31:00,70.2,51.3,30.05,SW,225,0.0,1.0,51,0.00,,,0.00,meteohub,2013-09-15 21:31:00,
2013-09-16 00:37:00,70.2,51.3,30.05,SW,225,0.0,1.0,51,0.00,,,0.00,meteohub,2013-09-15 21:37:00,
2013-09-16 00:43:00,70.3,51.8,30.05,SW,225,0.0,0.0,52,0.00,,,0.00,meteohub,2013-09-15 21:43:00,
2013-09-16 00:49:00,70.2,51.6,30.05,SW,225,0.0,0.0,52,0.00,,,0.00,meteohub,2013-09-15 21:49:00,
2013-09-16 00:55:00,70.2,52.2,30.05,SW,225,0.0,1.0,53,0.00,,,0.00,meteohub,2013-09-15 21:55:00,
2013-09-16 01:01:00,70.2,52.2,30.05,SW,225,0.0,1.0,53,0.00,,,0.00,meteohub,2013-09-15 22:01:00,
2013-09-16 01:08:00,70.0,52.0,30.05,SW,225,0.0,1.0,53,0.00,,,0.00,meteohub,2013-09-15 22:08:00,
2013-09-16 01:14:00,69.8,51.8,30.05,SW,225,0.0,0.0,53,0.00,,,0.00,meteohub,2013-09-15 22:14:00,
2013-09-16 01:20:00,69.8,51.8,30.05,SW,225,0.0,0.0,53,0.00,,,0.00,meteohub,2013-09-15 22:20:00,
2013-09-16 01:26:00,69.8,52.3,30.05,SW,225,0.0,0.0,54,0.00,,,0.00,meteohub,2013-09-15 22:26:00,
2013-09-16 01:32:00,69.6,52.7,30.05,SW,225,0.0,0.0,55,0.00,,,0.00,meteohub,2013-09-15 22:32:00,
2013-09-16 01:38:00,69.6,52.7,30.05,SW,225,0.0,0.0,55,0.00,,,0.00,meteohub,2013-09-15 22:38:00,
2013-09-16 01:44:00,69.6,53.2,30.05,SW,225,0.0,0.0,56,0.00,,,0.00,meteohub,2013-09-15 22:44:00,
2013-09-16 01:50:00,69.4,53.6,30.05,SW,225,0.0,0.0,57,0.00,,,0.00,meteohub,2013-09-15 22:50:00,
2013-09-16 01:56:00,69.4,53.1,30.05,SW,225,0.0,0.0,56,0.00,,,0.00,meteohub,2013-09-15 22:56:00,
2013-09-16 02:02:00,69.3,53.4,30.05,SW,225,0.0,0.0,57,0.00,,,0.00,meteohub,2013-09-15 23:02:00,
2013-09-16 02:07:00,69.3,53.4,30.05,SW,225,0.0,0.0,57,0.00,,,0.00,meteohub,2013-09-15 23:07:00,
2013-09-16 02:13:00,69.1,52.7,30.05,SW,225,0.0,0.0,56,0.00,,,0.00,meteohub,2013-09-15 23:13:00,
2013-09-16 02:19:00,69.1,52.7,30.05,SW,225,0.0,0.0,56,0.00,,,0.00,meteohub,2013-09-15 23:19:00,
2013-09-16 02:25:00,68.9,52.5,30.05,SW,225,0.0,0.0,56,0.00,,,0.00,meteohub,2013-09-15 23:25:00,
2013-09-16 02:31:00,68.9,52.0,30.05,SW,225,0.0,0.0,55,0.00,,,0.00,meteohub,2013-09-15 23:31:00,
2013-09-16 02:37:00,68.9,52.0,30.05,SW,225,0.0,0.0,55,0.00,,,0.00,meteohub,2013-09-15 23:37:00,
2013-09-16 02:43:00,68.7,51.8,30.05,SW,225,0.0,0.0,55,0.00,,,0.00,meteohub,2013-09-15 23:43:00,
2013-09-16 02:49:00,68.7,51.4,30.05,SW,225,1.0,0.0,54,0.00,,,0.00,meteohub,2013-09-15 23:49:00,
2013-09-16 02:55:00,68.5,51.3,30.05,SW,225,0.0,1.0,54,0.00,,,0.00,meteohub,2013-09-15 23:55:00,
2013-09-16 03:01:00,68.5,51.3,30.05,SW,225,0.0,1.0,54,0.00,,,0.00,meteohub,2013-09-16 00:01:00,
2013-09-16 03:07:00,68.5,51.3,30.05,SW,225,0.0,1.0,54,0.00,,,0.00,meteohub,2013-09-16 00:07:00,
2013-09-16 03:16:00,68.5,51.3,30.05,East,90,0.0,0.0,54,0.00,,,0.00,meteohub,2013-09-16 00:16:00,
2013-09-16 03:22:00,68.4,51.6,30.05,East,90,0.0,1.0,55,0.00,,,0.00,meteohub,2013-09-16 00:22:00,
2013-09-16 03:28:00,68.4,51.6,30.05,East,90,0.0,1.0,55,0.00,,,0.00,meteohub,2013-09-16 00:28:00,
2013-09-16 03:34:00,68.4,52.0,30.05,East,90,0.0,0.0,56,0.00,,,0.00,meteohub,2013-09-16 00:34:00,
2013-09-16 03:40:00,68.4,52.0,30.02,East,90,0.0,0.0,56,0.00,,,0.00,meteohub,2013-09-16 00:40:00,
2013-09-16 03:46:00,68.2,51.8,30.02,East,90,0.0,0.0,56,0.00,,,0.00,meteohub,2013-09-16 00:46:00,
2013-09-16 03:52:00,68.2,52.3,30.02,East,90,0.0,0.0,57,0.00,,,0.00,meteohub,2013-09-16 00:52:00,
2013-09-16 03:57:00,68.2,52.3,30.02,East,90,0.0,0.0,57,0.00,,,0.00,meteohub,2013-09-16 00:57:00,
2013-09-16 04:03:00,68.2,52.9,30.02,East,90,0.0,0.0,58,0.00,,,0.00,meteohub,2013-09-16 01:03:00,
2013-09-16 04:09:00,68.2,53.2,30.02,East,90,0.0,0.0,59,0.00,,,0.00,meteohub,2013-09-16 01:09:00,
2013-09-16 04:15:00,68.2,53.2,30.02,SE,135,0.0,1.0,59,0.00,,,0.00,meteohub,2013-09-16 01:15:00,
2013-09-16 04:21:00,68.2,53.8,30.02,SE,135,0.0,1.0,60,0.00,,,0.00,meteohub,2013-09-16 01:21:00,
2013-09-16 04:27:00,68.2,53.8,30.02,SE,135,0.0,0.0,60,0.00,,,0.00,meteohub,2013-09-16 01:27:00,
2013-09-16 04:33:00,68.2,53.8,30.02,SE,135,0.0,0.0,60,0.00,,,0.00,meteohub,2013-09-16 01:33:00,
2013-09-16 04:39:00,68.0,53.6,30.02,SE,135,0.0,0.0,60,0.00,,,0.00,meteohub,2013-09-16 01:39:00,
2013-09-16 04:45:00,68.0,53.6,30.02,SE,135,0.0,0.0,60,0.00,,,0.00,meteohub,2013-09-16 01:45:00,
2013-09-16 04:51:00,68.0,53.6,30.02,SE,135,0.0,0.0,60,0.00,,,0.00,meteohub,2013-09-16 01:51:00,
2013-09-16 04:57:00,68.0,53.6,30.02,SE,135,0.0,0.0,60,0.00,,,0.00,meteohub,2013-09-16 01:57:00,
2013-09-16 05:03:00,67.8,53.4,30.02,SE,135,0.0,0.0,60,0.00,,,0.00,meteohub,2013-09-16 02:03:00,
2013-09-16 05:09:00,67.8,53.4,30.02,East,90,0.0,0.0,60,0.00,,,0.00,meteohub,2013-09-16 02:09:00,
2013-09-16 05:15:00,67.8,53.4,30.02,East,90,0.0,0.0,60,0.00,,,0.00,meteohub,2013-09-16 02:15:00,
2013-09-16 05:21:00,67.8,53.4,30.02,East,90,0.0,0.0,60,0.00,,,0.00,meteohub,2013-09-16 02:21:00,
2013-09-16 05:28:00,67.6,53.8,30.02,East,90,0.0,0.0,61,0.00,,,0.00,meteohub,2013-09-16 02:28:00,
2013-09-16 05:34:00,67.6,53.2,30.02,East,90,0.0,0.0,60,0.00,,,0.00,meteohub,2013-09-16 02:34:00,
2013-09-16 05:40:00,67.5,53.1,30.02,East,90,0.0,0.0,60,0.00,,,0.00,meteohub,2013-09-16 02:40:00,
2013-09-16 05:46:00,67.5,52.7,30.02,East,90,0.0,0.0,59,0.00,,,0.00,meteohub,2013-09-16 02:46:00,
2013-09-16 05:52:00,67.3,52.5,30.02,East,90,0.0,0.0,59,0.00,,,0.00,meteohub,2013-09-16 02:52:00,
2013-09-16 05:58:00,67.3,52.0,30.02,East,90,0.0,0.0,58,0.00,,,0.00,meteohub,2013-09-16 02:58:00,
2013-09-16 06:04:00,67.3,52.0,30.02,NE,45,0.0,0.0,58,0.00,,,0.00,meteohub,2013-09-16 03:04:00,
2013-09-16 06:10:00,67.1,51.3,30.02,NE,45,0.0,1.0,57,0.00,,,0.00,meteohub,2013-09-16 03:10:00,
2013-09-16 06:16:00,67.1,51.3,30.02,NE,45,0.0,1.0,57,0.00,,,0.00,meteohub,2013-09-16 03:16:00,
2013-09-16 06:22:00,67.1,51.3,30.02,NE,45,0.0,1.0,57,0.00,,,0.00,meteohub,2013-09-16 03:22:00,
2013-09-16 06:27:00,67.1,50.9,30.02,NE,45,0.0,0.0,56,0.00,,,0.00,meteohub,2013-09-16 03:27:00,
2013-09-16 06:33:00,66.9,50.7,30.02,NE,45,0.0,0.0,56,0.00,,,0.00,meteohub,2013-09-16 03:33:00,
2013-09-16 06:39:00,66.9,50.2,30.02,NE,45,0.0,0.0,55,0.00,,,0.00,meteohub,2013-09-16 03:39:00,
2013-09-16 06:45:00,66.9,50.2,30.02,NE,45,0.0,0.0,55,0.00,,,0.00,meteohub,2013-09-16 03:45:00,
2013-09-16 06:51:00,66.9,50.2,30.02,NE,45,0.0,0.0,55,0.00,,,0.00,meteohub,2013-09-16 03:51:00,
2013-09-16 06:57:00,66.9,49.8,30.02,NE,45,0.0,0.0,54,0.00,,,0.00,meteohub,2013-09-16 03:57:00,
2013-09-16 07:02:00,66.9,49.8,30.02,NE,45,0.0,1.0,54,0.00,,,0.00,meteohub,2013-09-16 04:02:00,
2013-09-16 07:03:00,66.9,49.8,30.02,NE,45,0.0,1.0,54,0.00,,,0.00,meteohub,2013-09-16 04:03:00,
2013-09-16 07:05:00,66.9,49.8,30.02,NE,45,0.0,1.0,54,0.00,,,0.00,meteohub,2013-09-16 04:05:00,
2013-09-16 07:06:00,66.9,49.8,30.02,NE,45,0.0,1.0,54,0.00,,,0.00,meteohub,2013-09-16 04:06:00,
2013-09-16 07:12:00,66.9,49.8,30.02,NE,45,0.0,1.0,54,0.00,,,0.00,meteohub,2013-09-16 04:12:00,
2013-09-16 07:14:00,66.9,49.8,30.02,NE,45,0.0,1.0,54,0.00,,,0.00,meteohub,2013-09-16 04:14:00,
2013-09-16 07:20:00,67.1,49.6,30.02,NE,45,0.0,2.0,53,0.00,,,0.00,meteohub,2013-09-16 04:20:00,
2013-09-16 07:26:00,67.1,49.6,30.02,NE,45,0.0,2.0,53,0.00,,,0.00,meteohub,2013-09-16 04:26:00,
2013-09-16 07:32:00,67.1,49.6,30.02,NE,45,0.0,1.0,53,0.00,,,0.00,meteohub,2013-09-16 04:32:00,
2013-09-16 07:38:00,67.3,49.8,30.02,NE,45,0.0,0.0,53,0.00,,,0.00,meteohub,2013-09-16 04:38:00,
2013-09-16 07:44:00,67.3,49.3,30.02,NE,45,0.0,0.0,52,0.00,,,0.00,meteohub,2013-09-16 04:44:00,
2013-09-16 07:50:00,67.3,49.3,30.02,NE,45,0.0,1.0,52,0.00,,,0.00,meteohub,2013-09-16 04:50:00,
2013-09-16 07:56:00,67.3,49.3,30.02,NE,45,0.0,1.0,52,0.00,,,0.00,meteohub,2013-09-16 04:56:00,
2013-09-16 08:02:00,67.5,49.5,30.02,NE,45,0.0,0.0,52,0.00,,,0.00,meteohub,2013-09-16 05:02:00,
2013-09-16 08:07:00,67.5,49.5,30.02,NE,45,0.0,2.0,52,0.00,,,0.00,meteohub,2013-09-16 05:07:00,
2013-09-16 08:13:00,67.5,49.5,30.02,NE,45,0.0,2.0,52,0.00,,,0.00,meteohub,2013-09-16 05:13:00,
2013-09-16 08:19:00,67.6,49.6,30.02,East,90,0.0,2.0,52,0.00,,,0.00,meteohub,2013-09-16 05:19:00,
2013-09-16 08:25:00,67.8,49.3,30.02,East,90,0.0,0.0,51,0.00,,,0.00,meteohub,2013-09-16 05:25:00,
2013-09-16 08:31:00,68.0,49.3,30.02,SE,135,0.0,0.0,51,0.00,,,0.00,meteohub,2013-09-16 05:31:00,
2013-09-16 08:37:00,68.4,49.6,30.02,East,90,0.0,1.0,51,0.00,,,0.00,meteohub,2013-09-16 05:37:00,
2013-09-16 08:43:00,69.4,51.1,30.02,SE,135,0.0,1.0,52,0.00,,,0.00,meteohub,2013-09-16 05:43:00,
2013-09-16 08:49:00,70.5,51.4,30.02,South,180,0.0,1.0,51,0.00,,,0.00,meteohub,2013-09-16 05:49:00,
2013-09-16 08:55:00,71.8,51.6,30.02,SW,225,0.0,2.0,49,0.00,,,0.00,meteohub,2013-09-16 05:55:00,
2013-09-16 09:01:00,73.0,51.1,30.02,South,180,0.0,2.0,46,0.00,,,0.00,meteohub,2013-09-16 06:01:00,
2013-09-16 09:11:00,75.2,49.5,30.02,South,180,0.0,2.0,40,0.00,,,0.00,meteohub,2013-09-16 06:11:00,
2013-09-16 09:17:00,76.3,49.6,30.02,South,180,1.0,2.0,39,0.00,,,0.00,meteohub,2013-09-16 06:17:00,
2013-09-16 09:23:00,77.4,47.7,30.02,South,180,1.0,2.0,35,0.00,,,0.00,meteohub,2013-09-16 06:23:00,
2013-09-16 09:30:00,78.4,47.1,30.02,South,180,2.0,2.0,33,0.00,,,0.00,meteohub,2013-09-16 06:30:00,
2013-09-16 09:36:00,78.3,46.2,30.02,South,180,1.0,2.0,32,0.00,,,0.00,meteohub,2013-09-16 06:36:00,
2013-09-16 09:42:00,78.3,46.2,30.02,South,180,1.0,3.0,32,0.00,,,0.00,meteohub,2013-09-16 06:42:00,
2013-09-16 09:48:00,78.6,45.7,30.02,NNW,338,0.0,3.0,31,0.00,,,0.00,meteohub,2013-09-16 06:48:00,
2013-09-16 09:54:00,78.4,45.5,30.02,SE,135,0.0,3.0,31,0.00,,,0.00,meteohub,2013-09-16 06:54:00,
2013-09-16 10:00:00,77.9,45.0,30.02,South,180,1.0,3.0,31,0.00,,,0.00,meteohub,2013-09-16 07:00:00,
2013-09-16 10:06:00,77.2,43.5,30.02,South,180,0.0,3.0,30,0.00,,,0.00,meteohub,2013-09-16 07:06:00,
2013-09-16 10:12:00,76.1,43.3,30.02,SSW,202,2.0,4.0,31,0.00,,,0.00,meteohub,2013-09-16 07:12:00,
2013-09-16 10:17:00,75.2,42.6,30.02,South,180,1.0,4.0,31,0.00,,,0.00,meteohub,2013-09-16 07:17:00,
2013-09-16 10:22:00,74.8,43.2,30.02,NE,45,0.0,4.0,32,0.00,,,0.00,meteohub,2013-09-16 07:22:00,
2013-09-16 10:28:00,74.1,42.6,30.02,SW,225,1.0,4.0,32,0.00,,,0.00,meteohub,2013-09-16 07:28:00,
2013-09-16 10:34:00,73.6,42.1,30.02,SSW,202,4.0,4.0,32,0.00,,,0.00,meteohub,2013-09-16 07:34:00,
2013-09-16 10:40:00,73.4,41.9,30.02,SW,225,1.0,4.0,32,0.00,,,0.00,meteohub,2013-09-16 07:40:00,
2013-09-16 10:46:00,73.4,42.6,30.02,West,270,1.0,4.0,33,0.00,,,0.00,meteohub,2013-09-16 07:46:00,
2013-09-16 10:52:00,73.4,42.6,30.02,South,180,4.0,4.0,33,0.00,,,0.00,meteohub,2013-09-16 07:52:00,
2013-09-16 10:58:00,73.2,42.6,30.02,South,180,2.0,6.0,33,0.00,,,0.00,meteohub,2013-09-16 07:58:00,
2013-09-16 11:04:00,73.4,41.9,30.02,South,180,2.0,6.0,32,0.00,,,0.00,meteohub,2013-09-16 08:04:00,
2013-09-16 11:10:00,73.4,41.9,30.02,South,180,1.0,6.0,32,0.00,,,0.00,meteohub,2013-09-16 08:10:00,
2013-09-16 11:16:00,73.4,41.0,30.02,South,180,2.0,4.0,31,0.00,,,0.00,meteohub,2013-09-16 08:16:00,
2013-09-16 11:22:00,73.6,42.1,30.02,SW,225,0.0,4.0,32,0.00,,,0.00,meteohub,2013-09-16 08:22:00,
2013-09-16 11:28:00,73.8,42.3,30.02,SW,225,2.0,3.0,32,0.00,,,0.00,meteohub,2013-09-16 08:28:00,
2013-09-16 11:34:00,73.6,42.1,30.02,SW,225,2.0,3.0,32,0.00,,,0.00,meteohub,2013-09-16 08:34:00,
2013-09-16 11:40:00,73.8,41.4,30.02,SW,225,1.0,5.0,31,0.00,,,0.00,meteohub,2013-09-16 08:40:00,
2013-09-16 11:46:00,73.6,41.2,30.02,SSW,202,1.0,6.0,31,0.00,,,0.00,meteohub,2013-09-16 08:46:00,
2013-09-16 11:52:00,73.8,42.3,30.02,SW,225,2.0,6.0,32,0.00,,,0.00,meteohub,2013-09-16 08:52:00,
2013-09-16 11:57:00,73.6,42.1,30.02,SSW,202,3.0,6.0,32,0.00,,,0.00,meteohub,2013-09-16 08:57:00,
2013-09-16 12:03:00,73.6,41.2,30.02,South,180,2.0,4.0,31,0.00,,,0.00,meteohub,2013-09-16 09:03:00,
2013-09-16 12:09:00,73.4,41.0,30.02,South,180,1.0,6.0,31,0.00,,,0.00,meteohub,2013-09-16 09:09:00,
2013-09-16 12:15:00,73.4,41.0,30.02,SSW,202,2.0,6.0,31,0.00,,,0.00,meteohub,2013-09-16 09:15:00,
2013-09-16 12:21:00,73.2,40.1,30.02,SW,225,3.0,4.0,30,0.00,,,0.00,meteohub,2013-09-16 09:21:00,
2013-09-16 12:27:00,73.4,41.0,30.02,SW,225,3.0,4.0,31,0.00,,,0.00,meteohub,2013-09-16 09:27:00,
2013-09-16 12:33:00,73.6,41.2,30.02,South,180,2.0,4.0,31,0.00,,,0.00,meteohub,2013-09-16 09:33:00,
2013-09-16 12:39:00,73.6,40.5,30.02,South,180,3.0,4.0,30,0.00,,,0.00,meteohub,2013-09-16 09:39:00,
2013-09-16 12:45:00,73.8,41.4,29.99,SW,225,3.0,4.0,31,0.00,,,0.00,meteohub,2013-09-16 09:45:00,
2013-09-16 12:51:00,73.8,40.5,29.99,SSW,202,2.0,4.0,30,0.00,,,0.00,meteohub,2013-09-16 09:51:00,
2013-09-16 12:57:00,74.1,41.7,29.99,SW,225,2.0,4.0,31,0.00,,,0.00,meteohub,2013-09-16 09:57:00,
2013-09-16 13:03:00,74.3,41.9,29.99,SW,225,3.0,4.0,31,0.00,,,0.00,meteohub,2013-09-16 10:03:00,
2013-09-16 13:09:00,74.3,41.9,29.99,SW,225,2.0,5.0,31,0.00,,,0.00,meteohub,2013-09-16 10:09:00,
2013-09-16 13:15:00,74.3,41.0,29.99,SW,225,2.0,5.0,30,0.00,,,0.00,meteohub,2013-09-16 10:15:00,
2013-09-16 13:22:00,74.1,39.0,29.99,South,180,0.0,4.0,28,0.00,,,0.00,meteohub,2013-09-16 10:22:00,
2013-09-16 13:28:00,74.3,37.4,29.99,South,180,3.0,4.0,26,0.00,,,0.00,meteohub,2013-09-16 10:28:00,
2013-09-16 13:34:00,74.5,39.4,29.99,South,180,2.0,4.0,28,0.00,,,0.00,meteohub,2013-09-16 10:34:00,
2013-09-16 13:40:00,74.5,38.5,29.99,South,180,1.0,4.0,27,0.00,,,0.00,meteohub,2013-09-16 10:40:00,
2013-09-16 13:46:00,74.8,38.8,29.99,SW,225,0.0,4.0,27,0.00,,,0.00,meteohub,2013-09-16 10:46:00,
2013-09-16 13:52:00,74.8,38.8,29.99,SW,225,3.0,4.0,27,0.00,,,0.00,meteohub,2013-09-16 10:52:00,
2013-09-16 13:58:00,75.0,37.9,29.96,SW,225,0.0,4.0,26,0.00,,,0.00,meteohub,2013-09-16 10:58:00,
2013-09-16 14:04:00,75.2,35.1,29.96,SW,225,0.0,4.0,23,0.00,,,0.00,meteohub,2013-09-16 11:04:00,
2013-09-16 14:10:00,75.6,35.2,29.96,SW,225,0.0,3.0,23,0.00,,,0.00,meteohub,2013-09-16 11:10:00,
2013-09-16 14:16:00,75.7,34.3,29.96,SW,225,2.0,3.0,22,0.00,,,0.00,meteohub,2013-09-16 11:16:00,
2013-09-16 14:22:00,75.7,34.3,29.96,SW,225,1.0,3.0,22,0.00,,,0.00,meteohub,2013-09-16 11:22:00,
2013-09-16 14:27:00,75.9,34.5,29.96,SW,225,2.0,3.0,22,0.00,,,0.00,meteohub,2013-09-16 11:27:00,
2013-09-16 14:33:00,76.3,34.9,29.96,East,90,0.0,3.0,22,0.00,,,0.00,meteohub,2013-09-16 11:33:00,
2013-09-16 14:39:00,76.5,34.9,29.96,SW,225,0.0,3.0,22,0.00,,,0.00,meteohub,2013-09-16 11:39:00,
2013-09-16 14:45:00,76.8,34.2,29.94,SW,225,0.0,3.0,21,0.00,,,0.00,meteohub,2013-09-16 11:45:00,
2013-09-16 14:51:00,77.0,34.2,29.94,SW,225,1.0,3.0,21,0.00,,,0.00,meteohub,2013-09-16 11:51:00,
2013-09-16 14:57:00,77.0,30.4,29.94,South,180,2.0,4.0,18,0.00,,,0.00,meteohub,2013-09-16 11:57:00,
2013-09-16 15:03:00,77.5,30.9,29.94,South,180,2.0,4.0,18,0.00,,,0.00,meteohub,2013-09-16 12:03:00,
2013-09-16 15:09:00,77.9,31.1,29.94,SSW,202,2.0,4.0,18,0.00,,,0.00,meteohub,2013-09-16 12:09:00,
2013-09-16 15:15:00,78.1,31.3,29.94,South,180,1.0,4.0,18,0.00,,,0.00,meteohub,2013-09-16 12:15:00,
2013-09-16 15:21:00,78.1,26.8,29.94,South,180,1.0,4.0,15,0.00,,,0.00,meteohub,2013-09-16 12:21:00,
2013-09-16 15:27:00,77.9,26.6,29.94,South,180,3.0,4.0,15,0.00,,,0.00,meteohub,2013-09-16 12:27:00,
2013-09-16 15:33:00,77.5,26.4,29.94,SSW,202,2.0,4.0,15,0.00,,,0.00,meteohub,2013-09-16 12:33:00,
2013-09-16 15:39:00,78.4,31.6,29.94,SW,225,2.0,5.0,18,0.00,,,0.00,meteohub,2013-09-16 12:39:00,
2013-09-16 15:46:00,79.7,31.1,29.94,SSW,202,3.0,5.0,17,0.00,,,0.00,meteohub,2013-09-16 12:46:00,
2013-09-16 15:52:00,81.5,27.9,29.94,SW,225,0.0,5.0,14,0.00,,,0.00,meteohub,2013-09-16 12:52:00,
2013-09-16 15:58:00,83.5,32.7,29.94,SW,225,0.0,4.0,16,0.00,,,0.00,meteohub,2013-09-16 12:58:00,
2013-09-16 16:04:00,84.6,28.4,29.94,SW,225,3.0,4.0,13,0.00,,,0.00,meteohub,2013-09-16 13:04:00,
2013-09-16 16:10:00,85.8,29.5,29.94,South,180,2.0,3.0,13,0.00,,,0.00,meteohub,2013-09-16 13:10:00,
2013-09-16 16:16:00,85.8,29.5,29.94,South,180,1.0,3.0,13,0.00,,,0.00,meteohub,2013-09-16 13:16:00,
2013-09-16 16:22:00,85.6,29.3,29.94,SW,225,0.0,4.0,13,0.00,,,0.00,meteohub,2013-09-16 13:22:00,
2013-09-16 16:28:00,83.8,23.9,29.91,SW,225,2.0,4.0,11,0.00,,,0.00,meteohub,2013-09-16 13:28:00,
2013-09-16 16:34:00,83.1,23.4,29.91,South,180,1.0,4.0,11,0.00,,,0.00,meteohub,2013-09-16 13:34:00,
2013-09-16 16:40:00,82.2,28.4,29.91,SW,225,2.0,4.0,14,0.00,,,0.00,meteohub,2013-09-16 13:40:00,
2013-09-16 16:46:00,81.9,28.2,29.91,SSW,202,0.0,2.0,14,0.00,,,0.00,meteohub,2013-09-16 13:46:00,
2013-09-16 16:52:00,81.1,27.5,29.91,SSW,202,2.0,2.0,14,0.00,,,0.00,meteohub,2013-09-16 13:52:00,
2013-09-16 16:57:00,80.6,27.1,29.91,SW,225,0.0,3.0,14,0.00,,,0.00,meteohub,2013-09-16 13:57:00,
2013-09-16 17:03:00,80.6,27.1,29.91,SW,225,1.0,4.0,14,0.00,,,0.00,meteohub,2013-09-16 14:03:00,
2013-09-16 17:09:00,80.4,27.0,29.91,South,180,1.0,4.0,14,0.00,,,0.00,meteohub,2013-09-16 14:09:00,
2013-09-16 17:15:00,80.2,28.6,29.91,SW,225,0.0,3.0,15,0.00,,,0.00,meteohub,2013-09-16 14:15:00,
2013-09-16 17:21:00,79.5,28.0,29.91,North,0,0.0,3.0,15,0.00,,,0.00,meteohub,2013-09-16 14:21:00,
2013-09-16 17:27:00,79.5,28.0,29.91,SW,225,1.0,2.0,15,0.00,,,0.00,meteohub,2013-09-16 14:27:00,
2013-09-16 17:33:00,79.5,28.0,29.91,North,0,0.0,3.0,15,0.00,,,0.00,meteohub,2013-09-16 14:33:00,
2013-09-16 17:39:00,79.0,30.6,29.91,NE,45,1.0,3.0,17,0.00,,,0.00,meteohub,2013-09-16 14:39:00,
2013-09-16 17:45:00,78.4,37.8,29.91,NE,45,1.0,6.0,23,0.00,,,0.00,meteohub,2013-09-16 14:45:00,
2013-09-16 17:51:00,78.1,38.5,29.91,North,0,1.0,5.0,24,0.00,,,0.00,meteohub,2013-09-16 14:51:00,
2013-09-16 17:57:00,77.7,38.1,29.88,North,0,2.0,5.0,24,0.00,,,0.00,meteohub,2013-09-16 14:57:00,
2013-09-16 18:03:00,77.5,41.0,29.88,NE,45,4.0,4.0,27,0.00,,,0.00,meteohub,2013-09-16 15:03:00,
2013-09-16 18:10:00,77.2,41.7,29.91,NE,45,2.0,4.0,28,0.00,,,0.00,meteohub,2013-09-16 15:10:00,
2013-09-16 18:16:00,77.0,43.3,29.91,NE,45,2.0,4.0,30,0.00,,,0.00,meteohub,2013-09-16 15:16:00,
2013-09-16 18:22:00,76.8,43.2,29.91,NE,45,0.0,4.0,30,0.00,,,0.00,meteohub,2013-09-16 15:22:00,
2013-09-16 18:28:00,76.5,43.7,29.88,NE,45,0.0,4.0,31,0.00,,,0.00,meteohub,2013-09-16 15:28:00,
2013-09-16 18:34:00,76.3,44.4,29.88,NE,45,0.0,4.0,32,0.00,,,0.00,meteohub,2013-09-16 15:34:00,
2013-09-16 18:40:00,75.9,44.1,29.88,NE,45,0.0,4.0,32,0.00,,,0.00,meteohub,2013-09-16 15:40:00,
2013-09-16 18:46:00,75.6,44.6,29.88,NE,45,1.0,4.0,33,0.00,,,0.00,meteohub,2013-09-16 15:46:00,
2013-09-16 18:52:00,75.2,44.2,29.88,NE,45,2.0,4.0,33,0.00,,,0.00,meteohub,2013-09-16 15:52:00,
2013-09-16 18:58:00,75.0,44.1,29.91,NNE,22,0.0,4.0,33,0.00,,,0.00,meteohub,2013-09-16 15:58:00,
2013-09-16 19:04:00,74.8,43.9,29.91,North,0,0.0,4.0,33,0.00,,,0.00,meteohub,2013-09-16 16:04:00,
2013-09-16 19:10:00,74.7,43.9,29.88,NE,45,0.0,4.0,33,0.00,,,0.00,meteohub,2013-09-16 16:10:00,
2013-09-16 19:16:00,74.7,43.9,29.88,NE,45,2.0,4.0,33,0.00,,,0.00,meteohub,2013-09-16 16:16:00,
2013-09-16 19:22:00,74.5,43.7,29.88,NE,45,2.0,2.0,33,0.00,,,0.00,meteohub,2013-09-16 16:22:00,
2013-09-16 19:27:00,74.5,43.7,29.91,NE,45,0.0,4.0,33,0.00,,,0.00,meteohub,2013-09-16 16:27:00,
2013-09-16 19:33:00,74.3,43.5,29.91,NE,45,0.0,4.0,33,0.00,,,0.00,meteohub,2013-09-16 16:33:00,
2013-09-16 19:39:00,74.1,43.3,29.91,NE,45,0.0,4.0,33,0.00,,,0.00,meteohub,2013-09-16 16:39:00,
2013-09-16 19:45:00,73.9,42.4,29.91,NE,45,3.0,4.0,32,0.00,,,0.00,meteohub,2013-09-16 16:45:00,
2013-09-16 19:51:00,73.9,42.4,29.91,NE,45,1.0,4.0,32,0.00,,,0.00,meteohub,2013-09-16 16:51:00,
2013-09-16 19:57:00,73.8,43.0,29.91,NE,45,0.0,4.0,33,0.00,,,0.00,meteohub,2013-09-16 16:57:00,
2013-09-16 20:03:00,73.8,43.0,29.91,NE,45,0.0,4.0,33,0.00,,,0.00,meteohub,2013-09-16 17:03:00,
2013-09-16 20:09:00,73.8,43.0,29.91,NE,45,0.0,2.0,33,0.00,,,0.00,meteohub,2013-09-16 17:09:00,
2013-09-16 20:15:00,73.6,42.8,29.91,NE,45,3.0,5.0,33,0.00,,,0.00,meteohub,2013-09-16 17:15:00,
2013-09-16 20:22:00,73.6,42.8,29.91,NE,45,3.0,5.0,33,0.00,,,0.00,meteohub,2013-09-16 17:22:00,
2013-09-16 20:28:00,73.4,43.5,29.91,NE,45,2.0,5.0,34,0.00,,,0.00,meteohub,2013-09-16 17:28:00,
2013-09-16 20:34:00,73.2,44.8,29.91,NE,45,2.0,6.0,36,0.00,,,0.00,meteohub,2013-09-16 17:34:00,
2013-09-16 20:40:00,73.0,45.3,29.91,NE,45,1.0,6.0,37,0.00,,,0.00,meteohub,2013-09-16 17:40:00,
2013-09-16 20:46:00,73.0,46.0,29.91,NE,45,3.0,4.0,38,0.00,,,0.00,meteohub,2013-09-16 17:46:00,
2013-09-16 20:52:00,72.9,45.9,29.91,NE,45,3.0,5.0,38,0.00,,,0.00,meteohub,2013-09-16 17:52:00,
2013-09-16 20:58:00,72.9,45.1,29.91,NE,45,4.0,5.0,37,0.00,,,0.00,meteohub,2013-09-16 17:58:00,
2013-09-16 21:04:00,72.9,45.1,29.91,NE,45,2.0,8.0,37,0.00,,,0.00,meteohub,2013-09-16 18:04:00,
2013-09-16 21:10:00,72.7,45.1,29.88,NNE,22,2.0,8.0,37,0.00,,,0.00,meteohub,2013-09-16 18:10:00,
2013-09-16 21:16:00,72.7,45.1,29.88,NE,45,3.0,5.0,37,0.00,,,0.00,meteohub,2013-09-16 18:16:00,
2013-09-16 21:22:00,72.7,44.4,29.88,NE,45,3.0,6.0,36,0.00,,,0.00,meteohub,2013-09-16 18:22:00,
2013-09-16 21:27:00,72.5,43.5,29.91,NNE,22,0.0,6.0,35,0.00,,,0.00,meteohub,2013-09-16 18:27:00,
2013-09-16 21:33:00,72.7,43.5,29.91,NE,45,3.0,6.0,35,0.00,,,0.00,meteohub,2013-09-16 18:33:00,
2013-09-16 21:39:00,72.5,43.5,29.91,NE,45,2.0,5.0,35,0.00,,,0.00,meteohub,2013-09-16 18:39:00,
2013-09-16 21:45:00,72.5,43.5,29.88,NE,45,1.0,7.0,35,0.00,,,0.00,meteohub,2013-09-16 18:45:00,
2013-09-16 21:51:00,72.5,43.5,29.88,NE,45,2.0,7.0,35,0.00,,,0.00,meteohub,2013-09-16 18:51:00,
2013-09-16 21:57:00,72.5,42.6,29.88,NE,45,0.0,7.0,34,0.00,,,0.00,meteohub,2013-09-16 18:57:00,
2013-09-16 22:03:00,72.5,42.6,29.88,NE,45,5.0,6.0,34,0.00,,,0.00,meteohub,2013-09-16 19:03:00,
2013-09-16 22:09:00,72.3,42.6,29.88,NE,45,3.0,6.0,34,0.00,,,0.00,meteohub,2013-09-16 19:09:00,
2013-09-16 22:15:00,72.3,41.7,29.88,NE,45,0.0,5.0,33,0.00,,,0.00,meteohub,2013-09-16 19:15:00,
2013-09-16 22:21:00,72.5,41.2,29.88,East,90,3.0,5.0,32,0.00,,,0.00,meteohub,2013-09-16 19:21:00,
2013-09-16 22:27:00,72.5,40.3,29.88,NE,45,2.0,6.0,31,0.00,,,0.00,meteohub,2013-09-16 19:27:00,
2013-09-16 22:33:00,72.5,40.3,29.88,NE,45,3.0,6.0,31,0.00,,,0.00,meteohub,2013-09-16 19:33:00,
2013-09-16 22:39:00,72.5,40.3,29.88,NE,45,0.0,6.0,31,0.00,,,0.00,meteohub,2013-09-16 19:39:00,
2013-09-16 22:46:00,72.5,38.7,29.88,NE,45,3.0,4.0,29,0.00,,,0.00,meteohub,2013-09-16 19:46:00,
2013-09-16 22:52:00,72.5,39.4,29.88,NE,45,1.0,4.0,30,0.00,,,0.00,meteohub,2013-09-16 19:52:00,
2013-09-16 22:58:00,72.3,38.5,29.88,NE,45,1.0,6.0,29,0.00,,,0.00,meteohub,2013-09-16 19:58:00,
2013-09-16 23:04:00,72.3,37.6,29.88,North,0,3.0,6.0,28,0.00,,,0.00,meteohub,2013-09-16 20:04:00,
2013-09-16 23:10:00,72.3,36.7,29.85,NE,45,3.0,6.0,27,0.00,,,0.00,meteohub,2013-09-16 20:10:00,
2013-09-16 23:16:00,72.3,35.6,29.85,NE,45,2.0,5.0,26,0.00,,,0.00,meteohub,2013-09-16 20:16:00,
2013-09-16 23:22:00,72.3,35.6,29.85,NE,45,0.0,5.0,26,0.00,,,0.00,meteohub,2013-09-16 20:22:00,
2013-09-16 23:28:00,72.3,35.6,29.88,NE,45,1.0,5.0,26,0.00,,,0.00,meteohub,2013-09-16 20:28:00,
2013-09-16 23:34:00,72.3,36.7,29.88,NE,45,0.0,6.0,27,0.00,,,0.00,meteohub,2013-09-16 20:34:00,
2013-09-16 23:40:00,72.3,37.6,29.85,NE,45,1.0,4.0,28,0.00,,,0.00,meteohub,2013-09-16 20:40:00,
2013-09-16 23:46:00,72.1,37.4,29.85,NE,45,0.0,4.0,28,0.00,,,0.00,meteohub,2013-09-16 20:46:00,
2013-09-16 23:52:00,72.1,38.3,29.85,NE,45,1.0,4.0,29,0.00,,,0.00,meteohub,2013-09-16 20:52:00,
2013-09-16 23:57:00,72.1,38.3,29.85,NE,45,3.0,4.0,29,0.00,,,0.00,meteohub,2013-09-16 20:57:00,